Location: Champaign/Urbana Astronomical Society Observatory
(40.0333°N, 88.2833°W)
Time: 22:23:05
(UTC-05:00)

ISS - Visible Passes

Search period start: 23 September 2018 00:00
Search period end: 03 October 2018 00:00
Orbit: 403 x 409 km, 51.6° (Epoch: 24 September)

Date Brightness Start Highest point End Pass type
(mag) Time Alt. Az. Time Alt. Az. Time Alt. Az.
23 Sep -2.9 20:18:34 10° WSW 20:21:47 46° NNW 20:23:11 27° NNE visible
24 Sep -3.8 19:26:36 10° SW 19:29:54 87° NW 19:33:13 10° NE visible
24 Sep -1.1 21:04:28 10° WNW 21:06:27 17° NNW 21:06:27 17° NNW visible
25 Sep -1.7 20:11:58 10° W 20:14:45 24° NNW 20:16:52 14° NNE visible
26 Sep -2.4 19:19:38 10° W 19:22:44 37° NNW 19:25:52 10° NE visible
26 Sep -0.9 20:58:20 10° NW 20:59:50 13° NNW 20:59:50 13° NNW visible
27 Sep -1.2 20:05:40 10° WNW 20:07:48 16° NNW 20:09:57 10° NNE visible
28 Sep -1.6 19:13:04 10° WNW 19:15:41 21° NNW 19:18:18 10° NNE visible
28 Sep -0.8 20:52:04 10° NNW 20:52:50 11° N 20:52:50 11° N visible
29 Sep -1.1 19:59:29 10° NW 20:00:55 12° N 20:02:22 10° NNE visible
30 Sep -1.2 19:06:45 10° NW 19:08:42 15° NNW 19:10:39 10° NNE visible
30 Sep -0.8 20:45:04 10° NNW 20:45:38 11° N 20:45:38 11° N visible
01 Oct -1.1 19:53:00 10° NNW 19:54:02 11° N 19:55:05 10° NNE visible
02 Oct -1.1 19:00:28 10° NNW 19:01:46 12° N 19:03:02 10° NNE visible
02 Oct -1.0 20:37:28 10° NNW 20:38:19 13° N 20:38:19 13° N visible
